Regional Weather Roundup
Issued by NWS

Home | Current Version | Previous Version | Text Only | Print | Product List | Glossary On
Versions: 1 2 3 4 5 6 7 8 9 10 11 12 13 14 15 16 17 18 19 20 21 22 23 24 25 26 27 28 29 30 31 32 33 34 35 36 37 38 39 40 41 42 43 44 45 46 47 48 49 50
000
ASUS43 KMKX 271010
RWRWI

WISCONSIN REGIONAL WEATHER ROUNDUP
NATIONAL WEATHER SERVICE MILWAUKEE/SULLIVAN WI
500 AM CDT FRI MAR 27 2015

NOTE: "FAIR" INDICATES FEW OR NO CLOUDS BELOW 12,000 FEET WITH NO
SIGNIFICANT WEATHER AND/OR OBSTRUCTIONS TO VISIBILITY.

WIZ001-002-006>008-014>016-023>028-271100-
NORTHWEST WISCONSIN

CITY           SKY/WX    TMP DP  RH WIND       PRES   REMARKS
SUPERIOR ARPT  FAIR      17   7  63 N3        30.28R
ASHLAND        CLEAR     14   6  70 NW7       30.25R WCI   4
HAYWARD        CLEAR     11   6  81 CALM      30.22R
SIREN          CLEAR     10   2  69 CALM      30.26R
CUMBERLAND     FAIR      16   7  67 N5        30.22S WCI   9
RICE LAKE      FAIR      18   7  62 NW3       30.25R
CHETEK         FAIR      15   7  71 CALM      30.23S
LADYSMITH      CLEAR     15   8  72 NW6       30.22R WCI   6
EAU CLAIRE     CLEAR     18   6  59 N5        30.22R WCI  11
MENOMONIE      CLEAR     17   8  67 N5        30.24R WCI  10
NEW RICHMOND   CLEAR     18   6  59 N5        30.25R WCI  11
OSCEOLA        CLEAR     15   8  73 CALM      30.28S
$$

WIZ003>005-009-010-017-018-271100-
NORTH CENTRAL WISCONSIN

CITY           SKY/WX    TMP DP  RH WIND       PRES   REMARKS
MANITOWISH WTR CLEAR      7   5  92 CALM      30.14S
ARBOR VITAE    FLURRIES   9   6  88 CALM      30.14S
WOODRUFF       FLURRIES   9   6  88 CALM      30.14S
RHINELANDER    CLEAR      8   4  83 NW3       30.14R
EAGLE RIVER    CLEAR      5   1  84 CALM      30.13R
LAND O LAKES   LGT SNOW   2  -1  86 NW3       30.14R
PHILLIPS       CLEAR     12   6  77 CALM      30.16R
TOMAHAWK       MOCLDY     1  -2  86 CALM      30.17R
MEDFORD        CLEAR     10   4  78 N5        30.16S WCI   1
MERRILL        CLEAR      9   6  87 CALM      30.17R
$$

WIZ029-030-035-036-043>047-271100-
CENTRAL WISCONSIN

CITY           SKY/WX    TMP DP  RH WIND       PRES   REMARKS
WAUSAU         CLEAR     14   6  70 N6        30.16R WCI   5
MOSINEE        PTCLDY    16   9  73 N7        30.17R WCI   6
MARSHFIELD     CLEAR     15   7  70 N8        30.17R WCI   4
STEVENS POINT  PTCLDY    13   7  76 N6        30.18R WCI   4
WAUPACA        PTCLDY    18   7  64 NW6       30.18S WCI   9
WAUTOMA        MOCLDY    16   7  67 NW6       30.18R WCI   8
WISC RAPIDS    PTCLDY    15   5  64 N6        30.19R WCI   6
CAMP DOUGLAS   CLEAR     12   9  88 W6        30.19R WCI   2
$$

WIZ011>013-019>022-031-037>040-048>050-271100-
NORTHEAST WISCONSIN

CITY           SKY/WX    TMP DP  RH WIND       PRES   REMARKS
ANTIGO         CLEAR      8   4  82 NW5       30.14S WCI   0
SHAWANO        CLEAR     16   8  68 NW5       30.18R WCI   9
OCONTO         CLEAR     16   8  70 NW7       30.17R WCI   6
STURGEON BAY   CLOUDY    16   7  67 NW15      30.16R WCI   1
GREEN BAY      CLEAR     19   9  65 NW10      30.16S WCI   7
MANITOWOC      CLEAR     19  10  68 N10       30.15R WCI   7
APPLETON       CLEAR     18   9  68 NW9       30.16R WCI   6
CLINTONVILLE   CLEAR     18   9  68 N6        30.17S WCI   9
OSHKOSH        CLEAR     18   7  62 N10       30.16R WCI   6
$$

WIZ032>034-041-042-053>061-271100-
SOUTHWEST WISCONSIN

CITY           SKY/WX    TMP DP  RH WIND       PRES   REMARKS
LA CROSSE      CLEAR     21   9  59 N5        30.22S WCI  15
SPARTA         CLEAR     11   7  84 CALM      30.21S
VIROQUA        CLEAR     16   7  67 N3        30.17R
BOSCOBEL       CLEAR     21   6  52 N6        30.21R WCI  13
PRAIRIE DU CHI CLEAR     23   7  49 CALM      30.21R
PLATTEVILLE    CLEAR     21  12  69 N9        30.15R WCI  10
$$

WIZ056-057-062-063-064-067-068-271100-
SOUTH CENTRAL WISCONSIN

CITY           SKY/WX    TMP DP  RH WIND       PRES   REMARKS
REEDSBURG      CLEAR     17   6  62 N6        30.18R WCI   8
BARABOO/DELLS  CLEAR     17   6  61 N6        30.17R WCI   9
LONE ROCK      CLEAR     20   5  52 N8        30.19R WCI  10
MINERAL POINT  CLEAR     21   5  49 N10       30.14S WCI  10
MADISON        PTCLDY    19   7  59 N10       30.15R WCI   7
MIDDLETON      PTCLDY    21   9  60 N7        30.16R WCI  12
WATERTOWN      MOCLDY    19   8  63 N7        30.14R WCI   9
MONROE         CLEAR     19   9  63 N13G18    30.12R WCI   7
JANESVILLE     CLEAR     23  10  58 N8        30.13R WCI  14
$$

WIZ051-052-058>065-066-070>072-271100-
SOUTHEAST WISCONSIN

CITY           SKY/WX    TMP DP  RH WIND       PRES   REMARKS
MILWAUKEE      MOCLDY    20   5  52 N10       30.12R WCI   9
WAUKESHA       PTCLDY    19   3  49 N15G23    30.13R WCI   5
MILWAUKEE/TIMM MOCLDY    19   5  53 N9G20     30.14R WCI   9
RACINE         CLOUDY    22   9  57 N16       30.13R WCI   8
BURLINGTON     CLOUDY    21  11  64 N15       30.11R WCI   8
KENOSHA        CLOUDY    23  13  65 N17G23    30.11R WCI   9
FOND DU LAC    CLEAR     18   7  62 N8        30.15R WCI   8
SHEBOYGAN      CLEAR     18   7  62 N9        30.13S WCI   7
WEST BEND      CLEAR     18   5  57 N6        30.13R WCI   9
JUNEAU         CLEAR     17   6  62 N8        30.15R WCI   7
$$

LSZ147-162-271100-
LAKE SUPERIOR

STATION/POSITION TIME  TEMP    WIND        PRES    WAVE
                       AIR SEA DIR/SP/G            HT/PER
                 (UTC) (F)     (DEG/KT/KT) (MB)    (FT/S)
DEVILS ISLAND    1000   20      40/ 14/ 15 1026.1R
PORT WING        0900   22      30/ 11/ 18 1024.7S
SAXON HARBOR     0900   23      20/ 11/ 15 1023.4
$$

LMZ867-665-643>646-271100-
LAKE MICHIGAN

STATION/POSITION TIME  TEMP    WIND        PRES    WAVE
                       AIR SEA DIR/SP/G            HT/PER
                 (UTC) (F)     (DEG/KT/KT) (MB)    (FT/S)
NORTHPORT PIER   0911   19     350/ 12/ 17 1020.7S
SISTER BAY       0902   18     360/ 15/ 18   N/A
KEWAUNEE LAKESHO 0900          340/  6/ 11 1019.8F
SHEBOYGAN LAKESH 1000   21     340/ 17/ 20 1021.6R
PORT WASHINGTON  0900   20     350/  5/ 15 1021.0S
MILWAUKEE LAKESH 0900   23     350/ 17/ 21   N/A
KENOSHA   LAKESH 1000   25     360/ 20/ 30 1019.3R
$$

TC  - TEMPERATURE IN CELSIUS
VSB - VISIBILITY IN STATUTE MILES
WCI - WIND CHILL INDEX
HX  - HEAT INDEX



USA.gov is the U.S. government's official web portal to all federal, state and local government web resources and services.